This is the latest recevied weather packets stored in our database for station/object LZ3SV-3. If no packets are shown the sender has not sent any weather packets the latest 10 day(s).
| Time | Temp. | Humidity | Pressure | Rain* | Wind** | Luminosity | Snow |
|---|---|---|---|---|---|---|---|
| 1777849872 | 7.22° C | 65% | 993.2 hPa | - | - | - | - |
| 1777843272 | 7.22° C | 65% | 992.9 hPa | - | - | - | - |
| 1777825871 | 11.11° C | 65% | 993.1 hPa | - | - | - | - |
| 1777824071 | 11.67° C | 59% | 993 hPa | - | - | - | - |
| 1777820471 | 12.22° C | 56% | 993.2 hPa | - | - | - | - |
| 1777811471 | 12.22° C | 49% | 993.7 hPa | - | - | - | - |
| 1777810271 | 13.33° C | 46% | 993.7 hPa | - | - | - | - |
| 1777806071 | 12.22° C | 51% | 994.6 hPa | - | - | - | - |
| 1777803071 | 11.11° C | 55% | 994.9 hPa | - | - | - | - |
| 1777801270 | 10.56° C | 56% | 995 hPa | - | - | - | - |
| 1777795271 | 10.56° C | 61% | 995 hPa | - | - | - | - |
| 1777794671 | 10° C | 66% | 995.2 hPa | - | - | - | - |
| 1777791070 | 8.33° C | 90% | 994.8 hPa | - | - | - | - |
| 1777786870 | 7.22° C | 100% | 994.6 hPa | - | - | - | - |
| 1777781470 | 5° C | 100% | 994.3 hPa | - | - | - | - |
| 1777778470 | 5° C | 100% | 993.8 hPa | - | - | - | - |
| 1777777870 | 5° C | 100% | 993.8 hPa | - | - | - | - |
| 1777776670 | 5° C | 100% | 993.8 hPa | - | - | - | - |
| 1777774870 | 5° C | 100% | 993.8 hPa | - | - | - | - |
| 1777774270 | 5° C | 100% | 993.8 hPa | - | - | - | - |
| 1777773071 | 5° C | 100% | 993.8 hPa | - | - | - | - |
| 1777770070 | 5.56° C | 100% | 993.6 hPa | - | - | - | - |
| 1777764670 | 5.56° C | 100% | 994.2 hPa | - | - | - | - |
| 1777762870 | 5.56° C | 100% | 994.6 hPa | - | - | - | - |
| 1777762270 | 5.56° C | 100% | 994.7 hPa | - | - | - | - |
* Rain since midnight (hover to see other rain measurements)
** Current wind speed in m/s (hover to see current wind gust speed)